Location: Blachownia
(50.7807°N, 18.9578°E)
Time: 01:19:58
(UTC+01:00)

ISS - Pass Details

Date: 26 January 2019
Orbit: 403 x 411 km, 51.6° (Epoch: 19 February)

Event Time Altitude Azimuth Distance (km) Brightness Sun altitude
Rises 17:37:52 0° 222° (SW) 2,325 1.1 -11.5°
Reaches altitude 10° 17:40:04 10° 212° (SSW) 1,469 -0.3 -11.8°
Maximum altitude 17:43:01 30° 149° (SSE) 757 -2.6 -12.2°
Enters shadow 17:44:38 20° 101° (E) 1,031 -2.3 -12.5°
